Regional Weather Roundup
Issued by NWS

Home | Current Version | Previous Version | Text Only | Print | Product List | Glossary Off
Versions: 1 2 3 4 5 6 7 8 9 10 11 12 13 14 15 16 17 18 19 20 21 22 23 24 25 26 27 28 29 30 31 32 33 34 35 36 37 38 39 40 41 42 43 44 45 46 47 48 49 50

843
ASUS43 KFSD 242110
RWRSD

WEATHER ROUNDUP FOR SOUTH DAKOTA
NATIONAL WEATHER SERVICE SIOUX FALLS SD
300 PM CST FRI FEB 24 2017

NOTE: "FAIR" INDICATES FEW OR NO CLOUDS BELOW 12,000 FEET WITH NO
SIGNIFICANT WEATHER AND/OR OBSTRUCTIONS TO VISIBILITY.


SDZ001>005-009-010-012>017-242200-
NORTHWEST AND NORTH CENTRAL SOUTH DAKOTA

CITY           SKY/WX    TMP DP  RH WIND       PRES   REMARKS
BUFFALO          N/A     28  12  51 CALM      29.99F
FAITH            N/A     28  13  53 VRB7      30.07F WCI  21
MOBRIDGE       SUNNY     33  12  41 N18       30.07S WCI  22
$$

SDZ012>016-024>037-041>051-057-063-072>074-242200-
SOUTHWEST AND SOUTH CENTRAL SOUTH DAKOTA

CITY           SKY/WX    TMP DP  RH WIND       PRES   REMARKS
RAPID CTY ARPT PTSUNNY   22  15  75 S8        30.05S WCI  12
PIERRE         CLOUDY    30  13  49 N20G25    30.08S WCI  17
CUSTER         LGT SNOW  20  13  74 VRB3      29.91S
ELLSWORTH AFB  PTSUNNY   24  18  75 S7        30.03F WCI  16
PHILIP         SUNNY     31  11  43 N7        30.09F WCI  24
PINE RIDGE     MOSUNNY   22  16  78 CALM      30.06S
SPEARFISH      FAIR      23  18  80 CALM      30.00F
WINNER         CLOUDY    28  15  58 N18G25    30.06S WCI  15
$$

SDZ004>011-016>023-039-040-242200-
NORTHEAST SOUTH DAKOTA

CITY           SKY/WX    TMP DP  RH WIND       PRES   REMARKS
ABERDEEN       MOSUNNY   30  13  49 N23G31    30.05F WCI  17
WATERTOWN      CLOUDY    25  14  63 N24G31    29.95S WCI   9
BROOKINGS      PTSUNNY   27  15  61 N24G33    29.91S WCI  12
SISSETON         N/A     25  18  74 N23G33    30.01S WCI  10
$$

SDZ017-020-022-023-036>040-048>070-242200-
SOUTHEAST SOUTH DAKOTA

CITY           SKY/WX    TMP DP  RH WIND       PRES   REMARKS
SIOUX FALLS    CLOUDY    27  16  63 N23G33    29.91S WCI  12
HURON          CLOUDY    32  16  51 N18       30.01F WCI  20
CHAMBERLAIN    CLOUDY    33  16  51 NW20G25   30.05S WCI  21
MITCHELL       CLOUDY    32  16  51 N22G33    30.01S WCI  19
YANKTON        CLOUDY    28  16  59 NW22G28   29.96R WCI  15
$$

ABBREVIATIONS USED IN REMARKS
   TC - TEMPERATURE IN CELSIUS
  WCI - WIND CHILL INDEX
   HX - HEAT INDEX
  VSB - VISIBILITY





USA.gov is the U.S. government's official web portal to all federal, state and local government web resources and services.